| time (UTC) | temp C | wind direction | speed KPH | gust KPH | rain 1hr cm | rain 24hr cm | rain mn cm | humidity % | barometer mb |
| 20260906234745 | 34 | 168 | 0.0 | 3.2 | 0.00 | 0.00 | 0.00 | 45 | 1009.8 |
| 20260906234240 | 34 | 53 | 0.0 | 0.0 | 0.00 | 0.00 | 0.00 | 46 | 1009.7 |
| 20260906233739 | 34 | 129 | 0.0 | 3.2 | 0.00 | 0.00 | 0.00 | 46 | 1009.9 |
| 20260906233238 | 34 | 213 | 0.0 | 4.8 | 0.00 | 0.00 | 0.00 | 46 | 1009.7 |
| 20260906232734 | 34 | 249 | 0.0 | 3.2 | 0.00 | 0.00 | 0.00 | 45 | 1009.7 |
| 20260906232234 | 34 | 178 | 0.0 | 3.2 | 0.00 | 0.00 | 0.00 | 45 | 1009.8 |
| 20260906231728 | 34 | 174 | 0.0 | 1.6 | 0.00 | 0.00 | 0.00 | 46 | 1009.6 |
| 20260906231224 | 34 | 168 | 1.6 | 4.8 | 0.00 | 0.00 | 0.00 | 46 | 1009.8 |
| 20260906230723 | 34 | 208 | 1.6 | 6.4 | 0.00 | 0.00 | 0.00 | 45 | 1009.9 |
| 20260906230218 | 34 | 155 | 3.2 | 3.2 | 0.00 | 0.00 | 0.00 | 46 | 1009.7 |
| 20260906225716 | 34 | 148 | 1.6 | 3.2 | 0.00 | 0.00 | 0.00 | 46 | 1009.9 |
| 20260906225213 | 34 | 142 | 0.0 | 3.2 | 0.00 | 0.00 | 0.00 | 46 | 1009.7 |
| 20260906224708 | 35 | 196 | 1.6 | 4.8 | 0.00 | 0.00 | 0.00 | 45 | 1009.7 |
| 20260906224204 | 35 | 154 | 0.0 | 3.2 | 0.00 | 0.00 | 0.00 | 45 | 1009.9 |
| 20260906223701 | 34 | 168 | 1.6 | 4.8 | 0.00 | 0.00 | 0.00 | 45 | 1009.8 |
| 20260906223200 | 34 | 148 | 1.6 | 1.6 | 0.00 | 0.00 | 0.00 | 45 | 1009.8 |
| 20260906222659 | 35 | 164 | 0.0 | 4.8 | 0.00 | 0.00 | 0.00 | 43 | 1009.7 |
| 20260906222158 | 35 | 157 | 0.0 | 3.2 | 0.00 | 0.00 | 0.00 | 41 | 1009.7 |
| 20260906221656 | 35 | 166 | 1.6 | 3.2 | 0.00 | 0.00 | 0.00 | 39 | 1010.0 |
| 20260906221150 | 35 | 160 | 0.0 | 1.6 | 0.00 | 0.00 | 0.00 | 40 | 1009.8 |
| 20260906220646 | 36 | 224 | 1.6 | 4.8 | 0.00 | 0.00 | 0.00 | 38 | 1010.0 |
| 20260906220141 | 36 | 213 | 0.0 | 1.6 | 0.00 | 0.00 | 0.00 | 38 | 1009.9 |
| 20260906215640 | 36 | 147 | 0.0 | 3.2 | 0.00 | 0.00 | 0.00 | 38 | 1010.1 |
| 20260906215139 | 37 | 154 | 3.2 | 4.8 | 0.00 | 0.00 | 0.00 | 37 | 1010.2 |
| 20260906214638 | 36 | 269 | 0.0 | 0.0 | 0.00 | 0.00 | 0.00 | 38 | 1010.2 |
| 20260906214132 | 36 | 140 | 1.6 | 3.2 | 0.00 | 0.00 | 0.00 | 39 | 1010.2 |
| 20260906213632 | 35 | 2 | 0.0 | 1.6 | 0.00 | 0.00 | 0.00 | 40 | 1010.0 |
| 20260906213126 | 35 | 352 | 0.0 | 3.2 | 0.00 | 0.00 | 0.00 | 40 | 1010.3 |
| 20260906212624 | 35 | 50 | 0.0 | 0.0 | 0.00 | 0.00 | 0.00 | 40 | 1010.5 |
| 20260906212120 | 35 | 117 | 0.0 | 1.6 | 0.00 | 0.00 | 0.00 | 40 | 1010.3 |
| 20260906211619 | 35 | 150 | 1.6 | 4.8 | 0.00 | 0.00 | 0.00 | 40 | 1010.7 |
| 20260906211114 | 36 | 206 | 1.6 | 4.8 | 0.00 | 0.00 | 0.00 | 40 | 1010.5 |
| 20260906210610 | 36 | 31 | 3.2 | 4.8 | 0.00 | 0.00 | 0.00 | 39 | 1010.7 |
| 20260906210105 | 36 | 219 | 1.6 | 3.2 | 0.00 | 0.00 | 0.00 | 39 | 1010.8 |
| 20260906205600 | 36 | 230 | 0.0 | 3.2 | 0.00 | 0.00 | 0.00 | 39 | 1011.1 |
| 20260906205056 | 36 | 153 | 4.8 | 4.8 | 0.00 | 0.00 | 0.00 | 38 | 1011.1 |
| 20260906204555 | 36 | 223 | 8.0 | 8.0 | 0.00 | 0.00 | 0.00 | 38 | 1010.7 |
| 20260906204050 | 36 | 218 | 4.8 | 11.3 | 0.00 | 0.00 | 0.00 | 39 | 1011.1 |
| 20260906203549 | 36 | 221 | 1.6 | 4.8 | 0.00 | 0.00 | 0.00 | 39 | 1011.1 |
| 20260906203045 | 35 | 226 | 3.2 | 3.2 | 0.00 | 0.00 | 0.00 | 40 | 1011.2 |
| 20260906202541 | 35 | 154 | 0.0 | 3.2 | 0.00 | 0.00 | 0.00 | 41 | 1011.2 |
| 20260906202036 | 35 | 160 | 0.0 | 4.8 | 0.00 | 0.00 | 0.00 | 40 | 1011.4 |
| 20260906201536 | 36 | 148 | 3.2 | 3.2 | 0.00 | 0.00 | 0.00 | 39 | 1011.2 |
| 20260906201036 | 36 | 255 | 0.0 | 0.0 | 0.00 | 0.00 | 0.00 | 39 | 1011.3 |
| 20260906200532 | 36 | 249 | 3.2 | 4.8 | 0.00 | 0.00 | 0.00 | 40 | 1011.3 |
| 20260906200028 | 36 | 26 | 0.0 | 1.6 | 0.00 | 0.00 | 0.00 | 40 | 1011.3 |
| 20260906195523 | 36 | 193 | 0.0 | 3.2 | 0.00 | 0.00 | 0.00 | 40 | 1011.4 |
| 20260906195019 | 35 | 156 | 1.6 | 4.8 | 0.00 | 0.00 | 0.00 | 42 | 1011.5 |
| 20260906194515 | 35 | 147 | 3.2 | 3.2 | 0.00 | 0.00 | 0.00 | 42 | 1011.5 |
| 20260906194010 | 35 | 133 | 1.6 | 4.8 | 0.00 | 0.00 | 0.00 | 43 | 1011.5 |
| 20260906193510 | 35 | 146 | 1.6 | 3.2 | 0.00 | 0.00 | 0.00 | 42 | 1011.7 |
| 20260906193005 | 35 | 241 | 3.2 | 3.2 | 0.00 | 0.00 | 0.00 | 44 | 1011.8 |
| 20260906192500 | 34 | 75 | 0.0 | 1.6 | 0.00 | 0.00 | 0.00 | 45 | 1011.8 |
| 20260906191959 | 34 | 356 | 0.0 | 3.2 | 0.00 | 0.00 | 0.00 | 44 | 1011.8 |
| 20260906191454 | 35 | 168 | 0.0 | 4.8 | 0.00 | 0.00 | 0.00 | 45 | 1012.0 |
| 20260906190954 | 35 | 233 | 0.0 | 4.8 | 0.00 | 0.00 | 0.00 | 44 | 1012.1 |
| 20260906190453 | 36 | 166 | 0.0 | 3.2 | 0.00 | 0.00 | 0.00 | 41 | 1012.2 |
| 20260906185948 | 36 | 259 | 1.6 | 3.2 | 0.00 | 0.00 | 0.00 | 40 | 1012.2 |
| 20260906185447 | 36 | 151 | 3.2 | 3.2 | 0.00 | 0.00 | 0.00 | 41 | 1012.1 |
| 20260906184946 | 35 | 229 | 4.8 | 4.8 | 0.00 | 0.00 | 0.00 | 42 | 1012.0 |
| 20260906184442 | 35 | 193 | 0.0 | 4.8 | 0.00 | 0.00 | 0.00 | 42 | 1012.1 |
| 20260906183937 | 35 | 202 | 3.2 | 3.2 | 0.00 | 0.00 | 0.00 | 43 | 1012.1 |
| 20260906183433 | 35 | 130 | 1.6 | 3.2 | 0.00 | 0.00 | 0.00 | 43 | 1012.3 |
| 20260906182928 | 35 | 104 | 1.6 | 4.8 | 0.00 | 0.00 | 0.00 | 43 | 1012.1 |
| 20260906182424 | 35 | 248 | 0.0 | 3.2 | 0.00 | 0.00 | 0.00 | 46 | 1012.4 |
| 20260906181920 | 35 | 293 | 0.0 | 4.8 | 0.00 | 0.00 | 0.00 | 42 | 1012.4 |
| 20260906181415 | 35 | 215 | 0.0 | 3.2 | 0.00 | 0.00 | 0.00 | 40 | 1012.7 |
| 20260906180911 | 34 | 5 | 0.0 | 3.2 | 0.00 | 0.00 | 0.00 | 40 | 1012.8 |
| 20260906180405 | 34 | 322 | 0.0 | 4.8 | 0.00 | 0.00 | 0.00 | 41 | 1012.8 |
| 20260906175903 | 34 | 248 | 3.2 | 8.0 | 0.00 | 0.00 | 0.00 | 42 | 1012.8 |
| 20260906175358 | 33 | 214 | 3.2 | 4.8 | 0.00 | 0.00 | 0.00 | 45 | 1012.9 |
| 20260906174857 | 34 | 221 | 3.2 | 6.4 | 0.00 | 0.00 | 0.00 | 43 | 1013.1 |
| 20260906174356 | 34 | 34 | 0.0 | 1.6 | 0.00 | 0.00 | 0.00 | 42 | 1013.2 |
| 20260906173851 | 33 | 210 | 3.2 | 6.4 | 0.00 | 0.00 | 0.00 | 44 | 1013.1 |
| 20260906173347 | 33 | 221 | 0.0 | 4.8 | 0.00 | 0.00 | 0.00 | 46 | 1013.3 |
| 20260906172846 | 32 | 142 | 3.2 | 6.4 | 0.00 | 0.00 | 0.00 | 47 | 1013.5 |
| 20260906172342 | 32 | 156 | 3.2 | 9.7 | 0.00 | 0.00 | 0.00 | 49 | 1013.6 |
| 20260906171838 | 32 | 206 | 3.2 | 6.4 | 0.00 | 0.00 | 0.00 | 48 | 1013.8 |
| 20260906171338 | 32 | 236 | 4.8 | 4.8 | 0.00 | 0.00 | 0.00 | 48 | 1013.8 |
| 20260906170833 | 32 | 221 | 3.2 | 3.2 | 0.00 | 0.00 | 0.00 | 47 | 1013.9 |
| 20260906170329 | 31 | 165 | 0.0 | 6.4 | 0.00 | 0.00 | 0.00 | 50 | 1014.0 |
| 20260906165825 | 31 | 222 | 3.2 | 6.4 | 0.00 | 0.00 | 0.00 | 50 | 1013.9 |
| 20260906165324 | 30 | 138 | 3.2 | 6.4 | 0.00 | 0.00 | 0.00 | 53 | 1014.2 |
| 20260906164820 | 30 | 132 | 3.2 | 3.2 | 0.00 | 0.00 | 0.00 | 65 | 1014.2 |
| 20260906164319 | 30 | 138 | 0.0 | 3.2 | 0.00 | 0.00 | 0.00 | 67 | 1014.3 |
| 20260906163815 | 30 | 141 | 3.2 | 3.2 | 0.00 | 0.00 | 0.00 | 67 | 1014.1 |
| 20260906163311 | 29 | 154 | 0.0 | 3.2 | 0.00 | 0.00 | 0.00 | 66 | 1014.2 |
| 20260906162809 | 29 | 145 | 0.0 | 3.2 | 0.00 | 0.00 | 0.00 | 67 | 1014.1 |
| 20260906162308 | 30 | 89 | 0.0 | 1.6 | 0.00 | 0.00 | 0.00 | 67 | 1014.0 |
| 20260906161803 | 30 | 117 | 0.0 | 3.2 | 0.00 | 0.00 | 0.00 | 67 | 1014.1 |
| 20260906161302 | 30 | 142 | 0.0 | 3.2 | 0.00 | 0.00 | 0.00 | 67 | 1014.0 |
| 20260906160801 | 29 | 116 | 0.0 | 3.2 | 0.00 | 0.00 | 0.00 | 68 | 1013.9 |
| 20260906160255 | 29 | 176 | 0.0 | 3.2 | 0.00 | 0.00 | 0.00 | 67 | 1013.9 |
| 20260906155753 | 29 | 202 | 0.0 | 1.6 | 0.00 | 0.00 | 0.00 | 69 | 1014.2 |
| 20260906155248 | 29 | 205 | 0.0 | 0.0 | 0.00 | 0.00 | 0.00 | 69 | 1013.9 |
| 20260906154743 | 29 | 133 | 0.0 | 1.6 | 0.00 | 0.00 | 0.00 | 69 | 1013.9 |
| 20260906154238 | 29 | 147 | 0.0 | 1.6 | 0.00 | 0.00 | 0.00 | 69 | 1013.9 |
| 20260906153737 | 29 | 180 | 0.0 | 0.0 | 0.00 | 0.00 | 0.00 | 69 | 1013.7 |
| 20260906153231 | 29 | 174 | 0.0 | 3.2 | 0.00 | 0.00 | 0.00 | 69 | 1013.7 |
| 20260906152721 | 29 | 142 | 0.0 | 1.6 | 0.00 | 0.00 | 0.00 | 69 | 1013.7 |
| 20260906152220 | 29 | 76 | 0.0 | 0.0 | 0.00 | 0.00 | 0.00 | 69 | 1013.7 |
| 20260906151715 | 29 | 212 | 0.0 | 0.0 | 0.00 | 0.00 | 0.00 | 70 | 1013.5 |
| 20260906151211 | 29 | 205 | 0.0 | 0.0 | 0.00 | 0.00 | 0.00 | 70 | 1013.4 |
| 20260906150706 | 28 | 339 | 0.0 | 0.0 | 0.00 | 0.00 | 0.00 | 71 | 1013.6 |
| 20260906150201 | 28 | 148 | 0.0 | 0.0 | 0.00 | 0.00 | 0.00 | 72 | 1013.5 |
| 20260906145700 | 28 | 157 | 0.0 | 3.2 | 0.00 | 0.00 | 0.00 | 71 | 1013.2 |
| 20260906145155 | 28 | 142 | 0.0 | 3.2 | 0.00 | 0.00 | 0.00 | 72 | 1013.4 |
| 20260906144654 | 28 | 75 | 0.0 | 0.0 | 0.00 | 0.00 | 0.00 | 72 | 1013.3 |
| 20260906144149 | 28 | 333 | 0.0 | 1.6 | 0.00 | 0.00 | 0.00 | 72 | 1013.3 |
| 20260906143648 | 28 | 53 | 0.0 | 1.6 | 0.00 | 0.00 | 0.00 | 72 | 1013.2 |
| 20260906143146 | 28 | 147 | 0.0 | 0.0 | 0.00 | 0.00 | 0.00 | 73 | 1013.2 |
| 20260906142645 | 28 | 135 | 0.0 | 0.0 | 0.00 | 0.00 | 0.00 | 73 | 1013.4 |
| 20260906142140 | 28 | 269 | 0.0 | 3.2 | 0.00 | 0.00 | 0.00 | 73 | 1013.3 |
| 20260906141639 | 28 | 147 | 0.0 | 3.2 | 0.00 | 0.00 | 0.00 | 73 | 1013.2 |
| 20260906141135 | 28 | 27 | 0.0 | 1.6 | 0.00 | 0.00 | 0.00 | 74 | 1013.4 |
| 20260906140633 | 28 | 106 | 0.0 | 1.6 | 0.00 | 0.00 | 0.00 | 74 | 1013.2 |
| 20260906140129 | 28 | 44 | 0.0 | 0.0 | 0.00 | 0.00 | 0.00 | 74 | 1013.1 |
| 20260906135626 | 27 | 57 | 0.0 | 0.0 | 0.00 | 0.00 | 0.00 | 75 | 1013.2 |
| 20260906135122 | 27 | 93 | 0.0 | 1.6 | 0.00 | 0.00 | 0.00 | 75 | 1013.0 |
| 20260906134617 | 27 | 80 | 1.6 | 3.2 | 0.00 | 0.00 | 0.00 | 76 | 1013.0 |
| 20260906134112 | 27 | 286 | 0.0 | 1.6 | 0.00 | 0.00 | 0.00 | 76 | 1013.1 |
| 20260906133608 | 27 | 58 | 0.0 | 1.6 | 0.00 | 0.00 | 0.00 | 76 | 1013.1 |
| 20260906133103 | 27 | 144 | 0.0 | 3.2 | 0.00 | 0.00 | 0.00 | 76 | 1012.9 |
| 20260906132558 | 27 | 357 | 1.6 | 3.2 | 0.00 | 0.00 | 0.00 | 77 | 1013.0 |
| 20260906132053 | 27 | 359 | 0.0 | 3.2 | 0.00 | 0.00 | 0.00 | 77 | 1012.8 |
| 20260906131549 | 27 | 62 | 0.0 | 1.6 | 0.00 | 0.00 | 0.00 | 77 | 1012.7 |
| 20260906131044 | 26 | 228 | 0.0 | 3.2 | 0.00 | 0.00 | 0.00 | 78 | 1012.8 |
| 20260906130543 | 26 | 150 | 1.6 | 3.2 | 0.00 | 0.00 | 0.00 | 79 | 1012.7 |
| 20260906130039 | 26 | 164 | 1.6 | 1.6 | 0.00 | 0.00 | 0.00 | 79 | 1012.4 |
| 20260906125536 | 26 | 126 | 0.0 | 1.6 | 0.00 | 0.00 | 0.00 | 80 | 1012.5 |
| 20260906125036 | 25 | 187 | 0.0 | 3.2 | 0.00 | 0.00 | 0.00 | 81 | 1012.4 |
| 20260906124532 | 25 | 136 | 1.6 | 3.2 | 0.00 | 0.00 | 0.00 | 81 | 1012.1 |
| 20260906124027 | 25 | 157 | 0.0 | 1.6 | 0.00 | 0.00 | 0.00 | 81 | 1012.4 |
| 20260906123526 | 25 | 98 | 0.0 | 1.6 | 0.00 | 0.00 | 0.00 | 81 | 1011.9 |
| 20260906123022 | 25 | 160 | 0.0 | 0.0 | 0.00 | 0.00 | 0.00 | 81 | 1012.1 |
| 20260906122521 | 25 | 89 | 0.0 | 0.0 | 0.00 | 0.00 | 0.00 | 81 | 1012.1 |
| 20260906122017 | 25 | 129 | 1.6 | 3.2 | 0.00 | 0.00 | 0.00 | 81 | 1012.0 |
| 20260906121513 | 25 | 268 | 1.6 | 1.6 | 0.00 | 0.00 | 0.00 | 81 | 1011.8 |
| 20260906121010 | 25 | 104 | 0.0 | 1.6 | 0.00 | 0.00 | 0.00 | 81 | 1011.9 |
| 20260906120510 | 25 | 28 | 1.6 | 1.6 | 0.00 | 0.00 | 0.00 | 81 | 1011.7 |
| 20260906120007 | 25 | 93 | 0.0 | 1.6 | 0.00 | 0.00 | 0.00 | 82 | 1011.5 |
| 20260906115502 | 25 | 34 | 0.0 | 0.0 | 0.00 | 0.00 | 0.00 | 81 | 1011.4 |
| 20260906115001 | 25 | 58 | 0.0 | 1.6 | 0.00 | 0.00 | 0.00 | 81 | 1011.4 |
| 20260906114456 | 25 | 54 | 0.0 | 1.6 | 0.00 | 0.00 | 0.00 | 81 | 1011.6 |
| 20260906113953 | 25 | 66 | 0.0 | 0.0 | 0.00 | 0.00 | 0.00 | 81 | 1011.2 |
| 20260906113451 | 25 | 49 | 0.0 | 0.0 | 0.00 | 0.00 | 0.00 | 80 | 1011.4 |
| 20260906112946 | 25 | 37 | 0.0 | 0.0 | 0.00 | 0.00 | 0.00 | 80 | 1011.3 |
| 20260906112442 | 25 | 61 | 1.6 | 1.6 | 0.00 | 0.00 | 0.00 | 79 | 1011.2 |
| 20260906111938 | 25 | 138 | 0.0 | 1.6 | 0.00 | 0.00 | 0.00 | 79 | 1011.3 |
| 20260906111437 | 25 | 46 | 0.0 | 1.6 | 0.00 | 0.00 | 0.00 | 79 | 1011.0 |
| 20260906110931 | 26 | 26 | 1.6 | 1.6 | 0.00 | 0.00 | 0.00 | 78 | 1011.2 |
| 20260906110427 | 26 | 23 | 1.6 | 1.6 | 0.00 | 0.00 | 0.00 | 78 | 1011.3 |
| 20260906105926 | 26 | 154 | 0.0 | 0.0 | 0.00 | 0.00 | 0.00 | 77 | 1011.1 |
| 20260906105422 | 26 | 116 | 0.0 | 3.2 | 0.00 | 0.00 | 0.00 | 77 | 1011.1 |
| 20260906104918 | 26 | 216 | 0.0 | 0.0 | 0.00 | 0.00 | 0.00 | 76 | 1011.2 |
| 20260906104416 | 26 | 89 | 0.0 | 1.6 | 0.00 | 0.00 | 0.00 | 76 | 1011.2 |
| 20260906103915 | 26 | 129 | 0.0 | 0.0 | 0.00 | 0.00 | 0.00 | 76 | 1010.8 |
| 20260906103414 | 26 | 129 | 0.0 | 0.0 | 0.00 | 0.00 | 0.00 | 75 | 1011.0 |
| 20260906102910 | 26 | 129 | 0.0 | 0.0 | 0.00 | 0.00 | 0.00 | 75 | 1010.8 |
| 20260906102408 | 27 | 129 | 0.0 | 0.0 | 0.00 | 0.00 | 0.00 | 75 | 1011.0 |
| 20260906101904 | 27 | 129 | 0.0 | 0.0 | 0.00 | 0.00 | 0.00 | 74 | 1010.8 |
| 20260906101359 | 27 | 113 | 0.0 | 0.0 | 0.00 | 0.00 | 0.00 | 74 | 1010.8 |
| 20260906100854 | 27 | 124 | 0.0 | 0.0 | 0.00 | 0.00 | 0.00 | 74 | 1010.7 |
| 20260906100353 | 27 | 103 | 0.0 | 0.0 | 0.00 | 0.00 | 0.00 | 74 | 1010.8 |
| 20260906095848 | 27 | 205 | 0.0 | 0.0 | 0.00 | 0.00 | 0.00 | 73 | 1010.5 |
| 20260906095344 | 27 | 205 | 0.0 | 0.0 | 0.00 | 0.00 | 0.00 | 73 | 1010.6 |
| 20260906094843 | 27 | 124 | 0.0 | 1.6 | 0.00 | 0.00 | 0.00 | 73 | 1010.7 |
| 20260906094339 | 27 | 121 | 1.6 | 1.6 | 0.00 | 0.00 | 0.00 | 73 | 1010.8 |
| 20260906093835 | 27 | 154 | 0.0 | 3.2 | 0.00 | 0.00 | 0.00 | 72 | 1010.5 |
| 20260906093331 | 27 | 129 | 0.0 | 1.6 | 0.00 | 0.00 | 0.00 | 72 | 1010.5 |
| 20260906092826 | 27 | 142 | 0.0 | 3.2 | 0.00 | 0.00 | 0.00 | 72 | 1010.7 |
| 20260906092325 | 27 | 152 | 1.6 | 4.8 | 0.00 | 0.00 | 0.00 | 72 | 1010.6 |
| 20260906091821 | 27 | 169 | 1.6 | 3.2 | 0.00 | 0.00 | 0.00 | 71 | 1010.5 |
| 20260906091317 | 27 | 164 | 1.6 | 3.2 | 0.00 | 0.00 | 0.00 | 71 | 1010.6 |
| 20260906090813 | 27 | 150 | 3.2 | 3.2 | 0.00 | 0.00 | 0.00 | 71 | 1010.7 |
| 20260906090312 | 27 | 158 | 1.6 | 4.8 | 0.00 | 0.00 | 0.00 | 71 | 1010.7 |
| 20260906085813 | 27 | 195 | 1.6 | 3.2 | 0.00 | 0.00 | 0.00 | 72 | 1010.8 |
| 20260906085311 | 27 | 185 | 0.0 | 1.6 | 0.00 | 0.00 | 0.00 | 72 | 1010.8 |
| 20260906084807 | 27 | 129 | 0.0 | 1.6 | 0.00 | 0.00 | 0.00 | 72 | 1010.7 |
| 20260906084306 | 27 | 131 | 0.0 | 3.2 | 0.00 | 0.00 | 0.00 | 72 | 1010.8 |
| 20260906083801 | 28 | 138 | 1.6 | 3.2 | 0.00 | 0.00 | 0.00 | 72 | 1010.6 |
| 20260906083257 | 28 | 193 | 0.0 | 1.6 | 0.00 | 0.00 | 0.00 | 71 | 1010.6 |
| 20260906082757 | 28 | 212 | 0.0 | 3.2 | 0.00 | 0.00 | 0.00 | 71 | 1010.8 |
| 20260906082252 | 28 | 155 | 3.2 | 3.2 | 0.00 | 0.00 | 0.00 | 71 | 1010.7 |
| 20260906081748 | 28 | 187 | 1.6 | 4.8 | 0.00 | 0.00 | 0.00 | 71 | 1010.7 |
| 20260906081243 | 28 | 148 | 3.2 | 3.2 | 0.00 | 0.00 | 0.00 | 71 | 1011.0 |
| 20260906080739 | 28 | 126 | 1.6 | 3.2 | 0.00 | 0.00 | 0.00 | 71 | 1010.8 |
| 20260906080236 | 28 | 203 | 1.6 | 1.6 | 0.00 | 0.00 | 0.00 | 70 | 1010.7 |
| 20260906075735 | 28 | 124 | 0.0 | 1.6 | 0.00 | 0.00 | 0.00 | 70 | 1010.8 |
| 20260906075236 | 28 | 137 | 3.2 | 4.8 | 0.00 | 0.00 | 0.00 | 70 | 1011.0 |
| 20260906074731 | 28 | 130 | 1.6 | 3.2 | 0.00 | 0.00 | 0.00 | 70 | 1011.1 |
| 20260906074230 | 28 | 171 | 1.6 | 3.2 | 0.00 | 0.00 | 0.00 | 70 | 1011.0 |
| 20260906073730 | 28 | 156 | 0.0 | 4.8 | 0.00 | 0.00 | 0.00 | 70 | 1011.2 |
| 20260906073225 | 28 | 137 | 3.2 | 4.8 | 0.00 | 0.00 | 0.00 | 70 | 1011.2 |
| 20260906072721 | 28 | 195 | 1.6 | 3.2 | 0.00 | 0.00 | 0.00 | 70 | 1011.2 |
| 20260906072216 | 28 | 132 | 1.6 | 4.8 | 0.00 | 0.00 | 0.00 | 70 | 1011.3 |
| 20260906071712 | 28 | 156 | 0.0 | 1.6 | 0.00 | 0.00 | 0.00 | 70 | 1011.3 |
| 20260906071212 | 28 | 160 | 0.0 | 3.2 | 0.00 | 0.00 | 0.00 | 70 | 1011.6 |
| 20260906070709 | 28 | 180 | 0.0 | 4.8 | 0.00 | 0.00 | 0.00 | 70 | 1011.4 |
| 20260906070204 | 28 | 168 | 0.0 | 3.2 | 0.00 | 0.00 | 0.00 | 70 | 1011.5 |
| 20260906065703 | 28 | 201 | 1.6 | 3.2 | 0.00 | 0.00 | 0.00 | 70 | 1011.7 |
| 20260906065159 | 28 | 195 | 1.6 | 3.2 | 0.00 | 0.00 | 0.00 | 70 | 1011.6 |
| 20260906064654 | 28 | 161 | 1.6 | 3.2 | 0.00 | 0.00 | 0.00 | 71 | 1011.6 |
| 20260906064150 | 28 | 110 | 0.0 | 4.8 | 0.00 | 0.00 | 0.00 | 71 | 1011.6 |
| 20260906063645 | 28 | 135 | 0.0 | 3.2 | 0.00 | 0.00 | 0.00 | 72 | 1011.6 |
| 20260906063140 | 28 | 117 | 0.0 | 0.0 | 0.00 | 0.00 | 0.00 | 72 | 1011.6 |
| 20260906062636 | 28 | 129 | 0.0 | 0.0 | 0.00 | 0.00 | 0.00 | 72 | 1011.8 |
| 20260906062135 | 28 | 129 | 0.0 | 0.0 | 0.00 | 0.00 | 0.00 | 72 | 1011.7 |
| 20260906061631 | 28 | 142 | 0.0 | 0.0 | 0.00 | 0.00 | 0.00 | 72 | 1011.7 |
| 20260906061131 | 28 | 129 | 0.0 | 0.0 | 0.00 | 0.00 | 0.00 | 72 | 1011.5 |
| 20260906060628 | 28 | 141 | 0.0 | 1.6 | 0.00 | 0.00 | 0.00 | 72 | 1011.7 |
| 20260906060125 | 28 | 135 | 0.0 | 1.6 | 0.00 | 0.00 | 0.00 | 71 | 1011.9 |
| 20260906055620 | 28 | 142 | 0.0 | 0.0 | 0.00 | 0.00 | 0.00 | 71 | 1012.0 |
| 20260906055115 | 28 | 142 | 0.0 | 0.0 | 0.00 | 0.00 | 0.00 | 71 | 1012.0 |
| 20260906054610 | 28 | 117 | 0.0 | 0.0 | 0.00 | 0.00 | 0.00 | 70 | 1012.0 |
| 20260906054105 | 28 | 117 | 0.0 | 0.0 | 0.00 | 0.00 | 0.00 | 70 | 1011.8 |
| 20260906053602 | 28 | 117 | 0.0 | 0.0 | 0.00 | 0.00 | 0.00 | 70 | 1011.7 |
| 20260906053057 | 28 | 124 | 0.0 | 3.2 | 0.00 | 0.00 | 0.00 | 70 | 1011.6 |
| 20260906052552 | 28 | 134 | 0.0 | 3.2 | 0.00 | 0.00 | 0.00 | 70 | 1011.8 |
| 20260906052049 | 28 | 141 | 0.0 | 3.2 | 0.00 | 0.00 | 0.00 | 70 | 1011.7 |
| 20260906051545 | 28 | 155 | 1.6 | 3.2 | 0.00 | 0.00 | 0.00 | 70 | 1011.8 |
| 20260906051040 | 28 | 129 | 0.0 | 1.6 | 0.00 | 0.00 | 0.00 | 70 | 1011.9 |
| 20260906050535 | 28 | 151 | 1.6 | 3.2 | 0.00 | 0.00 | 0.00 | 70 | 1012.0 |
| 20260906050030 | 28 | 140 | 0.0 | 1.6 | 0.00 | 0.00 | 0.00 | 69 | 1012.2 |
| 20260906045528 | 28 | 160 | 0.0 | 0.0 | 0.00 | 0.00 | 0.00 | 69 | 1012.2 |
| 20260906045024 | 28 | 104 | 0.0 | 3.2 | 0.00 | 0.00 | 0.00 | 69 | 1012.2 |
| 20260906044520 | 28 | 148 | 0.0 | 1.6 | 0.00 | 0.00 | 0.00 | 69 | 1012.1 |
| 20260906044015 | 28 | 145 | 0.0 | 1.6 | 0.00 | 0.00 | 0.00 | 68 | 1011.9 |
| 20260906043511 | 28 | 128 | 0.0 | 3.2 | 0.00 | 0.00 | 0.00 | 68 | 1012.0 |
| 20260906043007 | 28 | 118 | 0.0 | 3.2 | 0.00 | 0.00 | 0.00 | 67 | 1011.9 |
| 20260906042505 | 28 | 141 | 0.0 | 1.6 | 0.00 | 0.00 | 0.00 | 67 | 1012.0 |
| 20260906042005 | 28 | 142 | 0.0 | 0.0 | 0.00 | 0.00 | 0.00 | 67 | 1011.9 |
| 20260906041502 | 28 | 164 | 0.0 | 0.0 | 0.00 | 0.00 | 0.00 | 66 | 1011.8 |
| 20260906041001 | 28 | 89 | 0.0 | 3.2 | 0.00 | 0.00 | 0.00 | 65 | 1011.7 |
| 20260906040456 | 29 | 130 | 0.0 | 1.6 | 0.00 | 0.00 | 0.00 | 65 | 1011.7 |
| 20260906035951 | 29 | 129 | 0.0 | 1.6 | 0.00 | 0.00 | 0.00 | 64 | 1011.8 |
| 20260906035447 | 29 | 142 | 0.0 | 0.0 | 0.00 | 0.00 | 0.00 | 64 | 1012.0 |
| 20260906034943 | 29 | 67 | 0.0 | 1.6 | 0.00 | 0.00 | 0.00 | 63 | 1011.9 |
| 20260906034443 | 29 | 205 | 0.0 | 1.6 | 0.00 | 0.00 | 0.00 | 63 | 1011.9 |
| 20260906033938 | 30 | 142 | 0.0 | 1.6 | 0.00 | 0.00 | 0.00 | 62 | 1012.1 |
| 20260906033438 | 30 | 293 | 0.0 | 1.6 | 0.00 | 0.00 | 0.00 | 62 | 1012.1 |
| 20260906032934 | 30 | 124 | 1.6 | 3.2 | 0.00 | 0.00 | 0.00 | 62 | 1012.0 |
| 20260906032431 | 30 | 50 | 1.6 | 3.2 | 0.00 | 0.00 | 0.00 | 61 | 1011.9 |
| 20260906031930 | 30 | 167 | 0.0 | 3.2 | 0.00 | 0.00 | 0.00 | 60 | 1011.7 |
| 20260906031426 | 30 | 147 | 0.0 | 3.2 | 0.00 | 0.00 | 0.00 | 60 | 1011.7 |
| 20260906030921 | 30 | 117 | 0.0 | 1.6 | 0.00 | 0.00 | 0.00 | 59 | 1011.6 |
| 20260906030416 | 30 | 102 | 0.0 | 3.2 | 0.00 | 0.00 | 0.00 | 59 | 1011.6 |
| 20260906025911 | 30 | 138 | 1.6 | 1.6 | 0.00 | 0.00 | 0.00 | 58 | 1011.5 |
| 20260906025410 | 30 | 60 | 0.0 | 1.6 | 0.00 | 0.00 | 0.00 | 58 | 1011.3 |
| 20260906024909 | 30 | 82 | 0.0 | 3.2 | 0.00 | 0.00 | 0.00 | 57 | 1011.4 |
| 20260906024409 | 30 | 253 | 0.0 | 3.2 | 0.00 | 0.00 | 0.00 | 57 | 1011.1 |
| 20260906023904 | 31 | 135 | 0.0 | 1.6 | 0.00 | 0.00 | 0.00 | 56 | 1011.1 |
| 20260906023401 | 31 | 218 | 0.0 | 3.2 | 0.00 | 0.00 | 0.00 | 55 | 1011.1 |
| 20260906022900 | 31 | 113 | 0.0 | 3.2 | 0.00 | 0.00 | 0.00 | 54 | 1010.7 |
| 20260906022355 | 31 | 89 | 0.0 | 3.2 | 0.00 | 0.00 | 0.00 | 53 | 1010.6 |
| 20260906021851 | 31 | 142 | 0.0 | 3.2 | 0.00 | 0.00 | 0.00 | 52 | 1010.6 |
| 20260906021350 | 31 | 269 | 0.0 | 3.2 | 0.00 | 0.00 | 0.00 | 52 | 1010.4 |
| 20260906020845 | 31 | 321 | 0.0 | 1.6 | 0.00 | 0.00 | 0.00 | 52 | 1010.3 |
| 20260906020344 | 31 | 269 | 0.0 | 3.2 | 0.00 | 0.00 | 0.00 | 51 | 1010.2 |
| 20260906015839 | 31 | 284 | 0.0 | 0.0 | 0.00 | 0.00 | 0.00 | 51 | 1010.2 |
| 20260906015339 | 31 | 212 | 0.0 | 1.6 | 0.00 | 0.00 | 0.00 | 51 | 1009.9 |
| 20260906014839 | 32 | 174 | 3.2 | 3.2 | 0.00 | 0.00 | 0.00 | 50 | 1010.0 |
| 20260906014333 | 32 | 114 | 0.0 | 1.6 | 0.00 | 0.00 | 0.00 | 51 | 1009.8 |
| 20260906013830 | 32 | 89 | 0.0 | 1.6 | 0.00 | 0.00 | 0.00 | 50 | 1009.9 |
| 20260906013325 | 32 | 180 | 0.0 | 1.6 | 0.00 | 0.00 | 0.00 | 50 | 1009.9 |
| 20260906012820 | 32 | 15 | 0.0 | 3.2 | 0.00 | 0.00 | 0.00 | 49 | 1009.8 |
| 20260906012320 | 32 | 303 | 0.0 | 4.8 | 0.00 | 0.00 | 0.00 | 49 | 1009.8 |
| 20260906011815 | 32 | 278 | 0.0 | 3.2 | 0.00 | 0.00 | 0.00 | 49 | 1009.7 |
| 20260906011315 | 32 | 269 | 0.0 | 1.6 | 0.00 | 0.00 | 0.00 | 49 | 1009.4 |
| 20260906010811 | 33 | 256 | 0.0 | 1.6 | 0.00 | 0.00 | 0.00 | 49 | 1009.8 |
| 20260906010307 | 33 | 19 | 0.0 | 4.8 | 0.00 | 0.00 | 0.00 | 48 | 1009.4 |
| 20260906005802 | 33 | 137 | 0.0 | 1.6 | 0.00 | 0.00 | 0.00 | 48 | 1009.7 |
| 20260906005301 | 33 | 217 | 0.0 | 1.6 | 0.00 | 0.00 | 0.00 | 48 | 1009.5 |
| 20260906004800 | 33 | 336 | 0.0 | 1.6 | 0.00 | 0.00 | 0.00 | 48 | 1009.6 |
| 20260906004256 | 33 | 50 | 0.0 | 3.2 | 0.00 | 0.00 | 0.00 | 47 | 1009.6 |
| 20260906003755 | 33 | 145 | 3.2 | 3.2 | 0.00 | 0.00 | 0.00 | 47 | 1009.5 |
| 20260906003251 | 34 | 36 | 1.6 | 3.2 | 0.00 | 0.00 | 0.00 | 46 | 1009.5 |
| 20260906002746 | 34 | 35 | 0.0 | 3.2 | 0.00 | 0.00 | 0.00 | 46 | 1009.5 |
| 20260906002246 | 35 | 313 | 1.6 | 4.8 | 0.00 | 0.00 | 0.00 | 45 | 1009.4 |
| 20260906001742 | 35 | 124 | 0.0 | 1.6 | 0.00 | 0.00 | 0.00 | 45 | 1009.4 |
| 20260906001237 | 35 | 339 | 0.0 | 3.2 | 0.00 | 0.00 | 0.00 | 45 | 1009.4 |
| 20260906000732 | 35 | 80 | 3.2 | 3.2 | 0.00 | 0.00 | 0.00 | 43 | 1009.3 |
| 20260906000227 | 35 | 138 | 1.6 | 3.2 | 0.00 | 0.00 | 0.00 | 42 | 1009.4 |
| 20260905235727 | 36 | 76 | 0.0 | 3.2 | 0.00 | 0.00 | 0.00 | 42 | 1009.1 |
| 20260905235221 | 36 | 316 | 0.0 | 3.2 | 0.00 | 0.00 | 0.00 | 42 | 1009.2 |